"TOA5","MOW","CPU:UNC_MeetingWaters","DataHourly"
"TIMESTAMP","SondeTempC","SpCond","DOSat","DOmg","pH","Turb","BattVolt_Min"
"TS","","","","","","",""
"","Smp","Smp","Smp","Smp","Smp","Smp","Min"
"2008-08-01 10:00:00",25.5100002289,0.104000002146,7.63000011444,-44.2999992371,610.400024414,89.5,12.6499996185
"2008-08-01 11:00:00",25.1900005341,1.40600001812,7.98999977112,-65.3000030518,6.09999990463,98.9000015259,14.0799999237
"2008-08-01 12:00:00",25.9400005341,1.68400001526,8.0,-66.5,4.5,100.099998474,13.7299995422
"2008-08-01 13:00:00",26.3700008392,1.34000003338,8.01000022888,-67.0,3.79999995232,100.300003052,13.720000267
"2008-08-01 14:00:00",26.7199993134,0.964999973774,8.02999973297,-68.3000030518,3.70000004768,100.699996948,13.7299995422
"2008-08-01 15:00:00",26.8199996948,0.934000015259,8.02999973297,-68.4000015259,3.20000004768,99.6999969482,13.6999998093
"2008-08-01 16:00:00",26.7900009155,0.940999984741,8.02999973297,-68.0999984741,2.90000009537,99.3000030518,12.7100000381
"2008-08-01 17:00:00",26.3899993896,0.0130000002682,8.01000022888,-66.6999969482,2.70000004768,98.0,12.5200004578
"2008-08-01 18:00:00",25.9099998474,0.0109999999404,8.17000007629,-76.3000030518,1.79999995232,96.4000015259,12.2899999619
"2008-08-01 19:00:00",25.3799991608,0.00999999977648,8.10999965668,-72.5999984741,2.0,95.0999984741,11.8000001907
"2008-08-01 20:00:00",24.8400001526,0.00899999961257,8.02000045776,-67.4000015259,2.0,96.6999969482,11.470000267
"2008-08-02 11:00:00",24.8099994659,0.0,7.65000009537,-45.9000015259,5.0,100.400001526,13.2299995422
"2008-08-02 12:00:00",27.8299999237,0.0,7.55999994278,-40.5999984741,4.90000009537,105.699996948,14.0600004196
"2008-08-02 13:00:00",29.6800003052,0.0,6.98999977112,-7.19999980927,5.0,111.800003052,13.6999998093
"2008-08-02 14:00:00",30.0400009155,0.0,6.63000011444,14.0,5.5,108.800003052,13.6499996185
"2008-08-02 15:00:00",27.5200004578,0.0,6.69999980927,10.0,5.09999990463,107.800003052,13.720000267
"2008-08-02 16:00:00",26.8199996948,0.0,6.80999994278,3.5,3.70000004768,100.099998474,12.7700004578
"2008-08-02 17:00:00",26.4699993134,0.0,7.09000015259,-13.1999998093,3.70000004768,98.5999984741,12.5600004196
"2008-08-02 18:00:00",25.9300003052,0.0,7.15000009537,-16.7000007629,4.5,97.5,12.5
"2008-08-02 19:00:00",25.3999996185,0.0,7.26000022888,-22.8999996185,5.80000019073,93.8000030518,12.1300001144
"2008-08-02 20:00:00",24.6399993896,0.0,7.28000020981,-23.8999996185,3.59999990463,85.8000030518,11.6400003433
"2008-08-03 10:00:00",24.6399993896,0.0,7.28000020981,-23.8999996185,3.59999990463,85.8000030518,12.4600000381
"2008-08-03 11:00:00",24.3999996185,0.0,7.17999982834,-18.3999996185,5.90000009537,96.0,14.0600004196
"2008-08-03 12:00:00",28.3700008392,0.0,6.86000013351,0.600000023842,5.0,155.0,14.0
"2008-08-03 13:00:00",30.2700004578,0.0,6.71999979019,8.69999980927,4.5,110.800003052,13.7299995422
"2008-08-03 14:00:00",28.5799999237,0.0,6.65999984741,12.6000003815,3.79999995232,132.0,13.75
"2008-08-03 15:00:00",27.5599994659,0.0,6.55999994278,18.3999996185,4.40000009537,125.699996948,13.75
"2008-08-03 16:00:00",27.5799999237,0.0,6.46999979019,23.2000007629,3.59999990463,106.900001526,12.7100000381
"2008-08-03 17:00:00",26.8099994659,0.0,6.59000015259,16.5,2.90000009537,100.099998474,12.5600004196
"2008-08-03 18:00:00",26.0200004578,0.0,6.78000020981,5.40000009537,3.09999990463,95.0999984741,12.4300003052
"2008-08-03 19:00:00",25.1200008392,0.0,7.01999998093,-8.69999980927,3.59999990463,93.3000030518,12.0699996948
"2008-08-03 20:00:00",24.3099994659,0.0,7.03999996185,-10.1999998093,2.09999990463,80.8000030518,11.5799999237
"2008-08-04 10:00:00",23.3899993896,0.527999997139,8.05000019073,-68.4000015259,2.70000004768,100.800003052,12.4899997711
"2008-08-04 11:00:00",24.2399997711,0.84399998188,8.06999969482,-69.8000030518,2.59999990463,102.699996948,14.0600004196
"2008-08-04 12:00:00",25.0499992371,0.907000005245,8.07999992371,-70.5,3.0,104.099998474,13.75
"2008-08-04 13:00:00",25.2800006866,0.01600000076,8.06000041962,-69.5,2.5,105.300003052,13.720000267
"2008-08-04 14:00:00",25.7299995422,0.00899999961257,8.05000019073,-68.9000015259,2.09999990463,105.5,13.7299995422
"2008-08-04 15:00:00",26.8999996185,0.0,7.86999988556,-58.5,1.10000002384,101.900001526,13.7399997711
"2008-08-04 16:00:00",27.3400001526,0.0,6.82000017166,2.90000009537,1.0,99.9000015259,12.7600002289
"2008-08-04 17:00:00",27.0799999237,0.0,6.67999982834,11.1999998093,1.29999995232,97.8000030518,12.5799999237
"2008-08-04 18:00:00",26.7000007629,0.0,6.86999988556,0.10000000149,2.40000009537,97.5,12.470000267
"2008-08-04 19:00:00",25.9300003052,0.0,7.17999982834,-18.2999992371,3.40000009537,97.1999969482,12.1400003433
"2008-08-04 20:00:00",24.9400005341,0.0,7.28000020981,-24.0,5.30000019073,95.0999984741,11.6300001144
"2008-08-05 10:00:00",23.8299999237,0.0,7.57999992371,-41.4000015259,2.90000009537,100.800003052,12.529999733
"2008-08-05 11:00:00",24.5499992371,0.0,7.34999990463,-28.0,2.59999990463,102.900001526,13.779999733
"2008-08-05 12:00:00",27.5900001526,0.0,7.05000019073,-10.8999996185,1.70000004768,109.400001526,13.75
"2008-08-05 13:00:00",28.5400009155,0.0,6.71000003815,9.5,3.59999990463,106.5,13.75
"2008-08-05 14:00:00",29.3099994659,0.0,6.36999988556,29.7000007629,2.40000009537,118.900001526,13.6899995804
"2008-08-05 15:00:00",27.6700000763,0.0,6.71999979019,8.80000019073,1.5,105.0,13.6999998093
"2008-08-05 16:00:00",27.25,0.0,6.75,6.80000019073,2.0,106.900001526,13.6899995804
"2008-08-05 17:00:00",26.9699993134,0.0,6.90999984741,-2.40000009537,4.40000009537,104.300003052,12.6499996185
"2008-08-05 18:00:00",26.6599998474,0.0,7.05999994278,-11.3000001907,1.60000002384,99.8000030518,12.5600004196
"2008-08-05 19:00:00",26.0599994659,0.0,7.17000007629,-17.3999996185,1.39999997616,98.5999984741,12.3900003433
"2008-08-05 20:00:00",25.4099998474,0.0,7.21000003815,-19.7999992371,1.70000004768,93.0999984741,11.9099998474
"2008-08-05 21:00:00",24.8799991608,0.0,7.23999977112,-21.7000007629,2.5,89.1999969482,11.5100002289
"2008-08-06 10:00:00",25.0799999237,0.0,7.17999982834,-18.1000003815,2.29999995232,101.199996948,12.4499998093
"2008-08-06 11:00:00",26.2999992371,0.0,6.84000015259,1.39999997616,2.70000004768,101.699996948,13.7700004578
"2008-08-06 12:00:00",29.6700000763,0.0,6.65000009537,13.0,2.09999990463,145.899993896,14.0200004578
"2008-08-06 13:00:00",29.2000007629,0.0,6.57000017166,18.0,2.0,110.300003052,13.75
"2008-08-06 14:00:00",30.6700000763,0.0,6.38999986649,28.7999992371,5.30000019073,187.600006104,13.8400001526
"2008-08-06 15:00:00",29.5100002289,0.0,6.48000001907,23.2000007629,2.29999995232,120.699996948,13.6999998093
"2008-08-06 16:00:00",29.3099994659,0.0,6.42000007629,26.6000003815,2.0,111.0,12.7700004578
"2008-08-06 17:00:00",28.7399997711,0.0,6.5,21.6000003815,2.0,96.9000015259,12.5500001907
"2008-08-06 18:00:00",27.5400009155,0.0,6.61000013351,15.1000003815,3.0,96.0999984741,12.4899997711
"2008-08-06 19:00:00",26.0200004578,0.0,6.90000009537,-2.0,3.70000004768,95.4000015259,12.1999998093
"2008-08-06 20:00:00",25.8999996185,0.0,6.90999984741,-2.40000009537,3.29999995232,91.6999969482,11.7100000381
"2008-08-07 11:00:00",24.6000003815,0.0,7.38000011444,-29.8999996185,3.40000009537,104.599998474,12.8500003815
"2008-08-07 12:00:00",27.0599994659,0.0,7.05000019073,-10.3999996185,3.40000009537,132.199996948,13.7700004578
"2008-08-07 13:00:00",28.5699996948,0.0,6.82999992371,2.40000009537,2.79999995232,176.199996948,13.8599996567
"2008-08-07 14:00:00",26.9799995422,0.0,6.88000011444,-0.899999976158,4.09999990463,114.400001526,13.220000267
"2008-08-07 15:00:00",27.5100002289,0.0,6.88000011444,-0.800000011921,2.79999995232,155.0,13.7899999619
"2008-08-07 16:00:00",27.2700004578,0.0,6.76000022888,6.5,3.0,110.599998474,12.8199996948
"2008-08-07 17:00:00",26.5100002289,0.0,6.98000001907,-6.69999980927,3.09999990463,103.800003052,12.5799999237
"2008-08-07 18:00:00",26.2800006866,0.0,7.07999992371,-12.6000003815,3.20000004768,106.800003052,12.5100002289
"2008-08-07 19:00:00",25.5799999237,0.0,7.19000005722,-18.6000003815,6.19999980927,106.099998474,12.3500003815
"2008-08-07 20:00:00",24.8700008392,0.0,7.25,-22.5,3.59999990463,96.0999984741,11.8000001907
"2008-08-07 21:00:00",24.5100002289,0.0,7.26000022888,-22.7999992371,3.5,82.6999969482,11.4300003052
"2008-08-08 11:00:00",24.7099990845,0.0,6.82999992371,2.40000009537,2.5,113.300003052,14.0
"2008-08-08 12:00:00",29.3299999237,0.0,6.69999980927,9.80000019073,5.19999980927,187.699996948,13.7700004578
"2008-08-08 13:00:00",29.7700004578,0.0,6.51999998093,20.7000007629,2.5,179.899993896,13.6999998093
"2008-08-08 14:00:00",29.1100006104,0.0,6.26999998093,35.2999992371,2.40000009537,182.199996948,13.720000267
"2008-08-08 15:00:00",27.7999992371,0.0,6.17999982834,40.5999984741,2.59999990463,158.699996948,13.0799999237
"2008-08-08 16:00:00",27.2399997711,0.0,5.96999979019,52.5999984741,2.29999995232,133.699996948,12.9099998474
"2008-08-08 17:00:00",26.8899993896,0.0,5.86000013351,59.2000007629,2.29999995232,130.100006104,12.6199998856
"2008-08-08 18:00:00",26.0799999237,0.0,6.40999984741,27.0,2.29999995232,120.300003052,12.529999733
"2008-08-08 19:00:00",24.8899993896,0.0,6.59000015259,16.0,4.09999990463,106.800003052,12.3900003433
"2008-08-08 20:00:00",23.6499996185,0.0,6.88000011444,-0.5,2.90000009537,97.9000015259,11.8800001144
"2008-08-09 11:00:00",23.2000007629,0.0,6.86999988556,-0.20000000298,4.30000019073,108.099998474,13.7100000381
"2008-08-09 12:00:00",26.1499996185,0.0,6.80000019073,3.90000009537,4.0,141.899993896,14.2399997711
"2008-08-09 13:00:00",26.2800006866,0.0,6.63999986649,13.5,3.5,185.0,13.8800001144
"2008-08-09 14:00:00",28.9099998474,0.0,6.19000005722,40.0,3.40000009537,243.100006104,14.1899995804
"2008-08-09 15:00:00",26.8199996948,0.0,6.40000009537,27.2000007629,3.90000009537,165.399993896,12.8800001144
"2008-08-09 16:00:00",25.6200008392,0.0,6.73999977112,7.69999980927,3.79999995232,164.800003052,12.8199996948
"2008-08-09 17:00:00",25.0499992371,0.0,6.67000007629,11.3999996185,2.70000004768,116.599998474,12.6199998856
"2008-08-09 18:00:00",24.8099994659,0.0,6.61999988556,14.3999996185,1.79999995232,122.599998474,12.5100002289
"2008-08-09 19:00:00",23.8799991608,0.0,6.76999998093,5.80000019073,1.89999997616,117.300003052,12.2700004578
"2008-08-09 20:00:00",22.7999992371,0.0,7.03000020981,-9.30000019073,3.0,103.099998474,11.6700000763
"2008-08-10 11:00:00",21.4300003052,0.00200000009499,7.90999984741,-60.4000015259,29.7000007629,82.5,11.9300003052
"2008-08-10 12:00:00",21.5300006866,0.00200000009499,8.07999992371,-69.6999969482,22.2999992371,87.5,11.9899997711
"2008-08-10 13:00:00",21.8199996948,0.00200000009499,7.96999979019,-63.5,24.7999992371,86.1999969482,12.5600004196
"2008-08-10 14:00:00",23.3099994659,0.00200000009499,8.13000011444,-73.5,24.6000003815,89.8000030518,14.3100004196
"2008-08-10 15:00:00",23.1800003052,0.0010000000475,7.88999986649,-59.2000007629,21.0,94.9000015259,13.8199996948
"2008-08-10 16:00:00",23.2900009155,0.0,7.05999994278,-11.5,16.2000007629,85.1999969482,13.8599996567
"2008-08-10 17:00:00",23.8799991608,0.0,7.11000013351,-14.3999996185,13.6999998093,84.9000015259,12.6000003815
"2008-08-10 18:00:00",23.3600006104,0.0,6.80999994278,3.40000009537,11.8999996185,82.0,12.4899997711
"2008-08-10 19:00:00",22.8700008392,0.0,6.94000005722,-4.40000009537,11.6000003815,82.3000030518,12.1999998093
"2008-08-10 20:00:00",22.3600006104,0.0,6.96999979019,-5.90000009537,11.3000001907,72.5,11.4799995422
"2008-08-11 11:00:00",22.4899997711,0.0,6.30000019073,32.9000015259,3.70000004768,104.800003052,14.2899999619
"2008-08-11 12:00:00",26.5100002289,0.0,6.19999980927,39.2999992371,2.09999990463,148.800003052,13.8699998856
"2008-08-11 13:00:00",27.3400001526,0.0,6.15000009537,42.5,3.09999990463,118.5,13.7899999619
"2008-08-11 14:00:00",28.5599994659,0.0,5.92000007629,56.2000007629,1.5,162.5,13.7899999619
"2008-08-11 15:00:00",26.0499992371,0.0,5.92999982834,55.2000007629,2.5,126.400001526,13.0699996948
"2008-08-11 16:00:00",25.5200004578,0.0,5.98999977112,51.2999992371,3.0,101.5,12.8000001907
"2008-08-11 17:00:00",25.3099994659,0.0,5.84000015259,60.0999984741,1.70000004768,94.3000030518,12.5100002289
"2008-08-11 18:00:00",24.9699993134,0.0,5.90999984741,55.9000015259,1.89999997616,89.4000015259,12.3400001526
"2008-08-11 19:00:00",23.7000007629,0.0,6.21999979019,37.4000015259,2.09999990463,92.6999969482,11.7700004578
"2008-08-12 11:00:00",21.0499992371,0.0,6.55000019073,18.2999992371,1.89999997616,110.5,13.9300003052
"2008-08-12 12:00:00",24.6599998474,0.0,6.40000009537,27.0,1.89999997616,177.5,13.9600000381
"2008-08-12 13:00:00",25.9300003052,0.0,6.21000003815,38.4000015259,1.60000002384,114.099998474,14.0799999237
"2008-08-12 14:00:00",27.6200008392,0.0,6.01999998093,49.7999992371,1.5,172.0,13.8100004196
"2008-08-12 15:00:00",25.5200004578,0.0,6.19999980927,39.0999984741,1.70000004768,135.899993896,13.9099998474
"2008-08-12 16:00:00",24.3299999237,0.0,6.32000017166,31.7000007629,1.79999995232,126.800003052,13.8299999237
"2008-08-12 17:00:00",24.1700000763,0.0,6.44000005722,24.7999992371,1.79999995232,131.899993896,12.5799999237
"2008-08-12 18:00:00",23.3899993896,0.0,6.59000015259,15.8999996185,1.89999997616,101.900001526,12.4899997711
"2008-08-12 19:00:00",22.9099998474,0.0,6.63999986649,13.3000001907,2.0,94.9000015259,12.0900001526
"2008-08-12 20:00:00",22.2600002289,0.0,6.69000005722,10.3999996185,1.89999997616,91.3000030518,11.5100002289
"2008-08-14 10:00:00",19.9899997711,0.0010000000475,7.09999990463,-13.3000001907,2.90000009537,87.8000030518,12.0900001526
"2008-08-14 11:00:00",20.8199996948,0.0010000000475,6.94999980927,-5.0,5.30000019073,95.6999969482,12.6499996185
"2008-08-14 12:00:00",21.1900005341,0.0010000000475,6.86000013351,0.40000000596,2.79999995232,101.099998474,13.970000267
"2008-08-14 13:00:00",22.0499992371,0.0010000000475,6.78000020981,5.19999980927,2.29999995232,103.5,14.0200004578
"2008-08-14 14:00:00",23.2299995422,0.0,6.63000011444,13.8000001907,2.29999995232,113.099998474,13.9399995804
"2008-08-14 15:00:00",22.8999996185,0.0,6.40999984741,26.2000007629,2.09999990463,110.900001526,13.3599996567
"2008-08-14 16:00:00",23.0300006866,0.0,6.21000003815,37.9000015259,2.09999990463,108.800003052,13.9899997711
"2008-08-14 17:00:00",22.7700004578,0.0010000000475,8.11999988556,-72.5999984741,66.5,95.9000015259,12.4300003052
"2008-08-14 18:00:00",22.5599994659,0.0010000000475,7.94000005722,-62.4000015259,19.7999992371,88.3000030518,12.0500001907
"2008-08-14 19:00:00",22.3199996948,0.0010000000475,7.73000001907,-49.9000015259,11.5,82.3000030518,11.5200004578
"2008-08-15 10:00:00",21.6399993896,0.0,7.30999994278,-25.7000007629,4.0,41.7000007629,11.8800001144
"2008-08-15 11:00:00",23.2999992371,0.0,7.19999980927,-19.1000003815,34.7999992371,79.0999984741,13.7899999619
"2008-08-15 12:00:00",25.25,0.0,6.78000020981,5.19999980927,9.10000038147,96.5999984741,13.9499998093
"2008-08-15 13:00:00",27.3600006104,0.0,6.63999986649,13.3999996185,9.10000038147,93.5999984741,13.7899999619
"2008-08-15 14:00:00",26.5100002289,0.0,6.38000011444,28.8999996185,18.2000007629,101.5,14.1700000763
"2008-08-15 15:00:00",24.5499992371,0.0,6.59000015259,16.2000007629,2.29999995232,81.5,12.4399995804
"2008-08-15 16:00:00",24.6200008392,0.0,6.57000017166,17.3999996185,4.0,86.5,12.75
"2008-08-15 17:00:00",23.8799991608,0.0,6.59999990463,15.5,2.09999990463,87.1999969482,12.3500003815
"2008-08-16 10:00:00",21.4799995422,0.00200000009499,7.03999996185,-9.80000019073,12.3000001907,96.5,11.9899997711
"2008-08-16 11:00:00",22.4599990845,0.00200000009499,6.98999977112,-7.40000009537,13.5,101.900001526,14.3299999237
"2008-08-16 12:00:00",23.6100006104,0.0010000000475,6.84999990463,1.29999995232,11.0,94.8000030518,13.8599996567
"2008-08-16 13:00:00",24.4699993134,0.0,6.63000011444,13.6000003815,7.30000019073,100.900001526,13.8299999237
"2008-08-16 14:00:00",25.3600006104,0.0,6.36999988556,28.8999996185,6.30000019073,100.0,13.8599996567
"2008-08-16 15:00:00",24.1200008392,0.0,6.23999977112,36.7999992371,6.90000009537,98.1999969482,13.529999733
"2008-08-16 16:00:00",24.2199993134,0.0,6.40999984741,26.7999992371,6.30000019073,103.099998474,14.029999733
"2008-08-16 17:00:00",23.8799991608,0.0,6.42999982834,25.6000003815,5.30000019073,92.6999969482,12.529999733
"2008-08-16 18:00:00",23.5400009155,0.0,6.48000001907,22.5,5.19999980927,91.9000015259,11.9499998093
"2008-08-16 19:00:00",22.9799995422,0.0,6.51999998093,20.1000003815,8.0,85.0,11.4799995422
"2008-08-17 10:00:00",21.6000003815,0.0,6.96999979019,-6.19999980927,4.90000009537,88.0999984741,12.1999998093
"2008-08-17 11:00:00",22.1900005341,0.0,6.88999986649,-1.60000002384,6.5,104.300003052,12.4799995422
"2008-08-17 12:00:00",22.2399997711,0.0,6.84000015259,1.70000004768,4.90000009537,96.1999969482,11.6999998093
"2008-08-17 13:00:00",22.4200000763,0.0,6.82999992371,2.29999995232,2.79999995232,101.199996948,11.720000267
"2008-08-17 14:00:00",23.4799995422,0.0,6.82000017166,2.70000004768,2.5,114.900001526,13.0
"2008-08-17 15:00:00",23.3500003815,0.0,6.59999990463,15.5,3.59999990463,106.199996948,12.8699998856
"2008-08-17 16:00:00",23.4699993134,0.0,6.61999988556,14.6000003815,2.79999995232,118.699996948,13.0100002289
"2008-08-17 17:00:00",23.3099994659,0.0,6.57999992371,16.5,2.20000004768,116.0,12.6000003815
"2008-08-17 18:00:00",23.1399993896,0.0,6.67000007629,11.6000003815,2.29999995232,105.300003052,12.0100002289
"2008-08-18 10:00:00",21.0300006866,0.0,7.13000011444,-15.3000001907,4.19999980927,94.9000015259,11.8699998856
"2008-08-18 11:00:00",23.0400009155,0.0,6.92999982834,-3.90000009537,3.40000009537,106.400001526,14.3699998856
"2008-08-18 12:00:00",24.9599990845,0.0,6.46000003815,23.7000007629,3.29999995232,120.800003052,14.1099996567
"2008-08-18 13:00:00",26.1399993896,0.0,6.32000017166,32.0,3.09999990463,101.699996948,13.75
"2008-08-18 14:00:00",27.6800003052,0.0,6.21000003815,39.0999984741,2.90000009537,93.5999984741,14.2899999619
"2008-08-18 15:00:00",25.3500003815,0.0,6.30999994278,32.7999992371,2.59999990463,96.5999984741,13.5100002289
"2008-08-18 16:00:00",24.6000003815,0.0,6.44000005722,24.7000007629,2.79999995232,95.5,12.8199996948
"2008-08-18 17:00:00",24.3600006104,0.0,6.38000011444,28.6000003815,2.40000009537,96.6999969482,12.4399995804
"2008-08-18 18:00:00",24.0,0.0,6.57999992371,17.0,2.29999995232,91.0,12.0600004196
"2008-08-18 19:00:00",23.5499992371,0.0,6.67999982834,10.6999998093,2.5,84.4000015259,11.4499998093
"2008-08-19 10:00:00",22.1900005341,0.0,7.11999988556,-14.6999998093,2.29999995232,91.9000015259,11.8199996948
"2008-08-19 11:00:00",24.9400005341,0.0,6.92999982834,-3.5,1.89999997616,106.400001526,13.6700000763
"2008-08-19 12:00:00",26.0100002289,0.0,6.44000005722,24.7999992371,2.70000004768,94.5999984741,13.779999733
"2008-08-19 13:00:00",28.1000003815,0.0,6.53000020981,19.7999992371,1.89999997616,123.400001526,13.75
"2008-08-19 14:00:00",28.3299999237,0.0,6.28999996185,34.0999984741,2.0,138.600006104,13.8100004196
"2008-08-19 15:00:00",26.2299995422,0.0,6.46999979019,23.2999992371,2.29999995232,104.5,13.3699998856
"2008-08-19 16:00:00",25.8099994659,0.0,6.51000022888,20.8999996185,5.19999980927,89.6999969482,13.7899999619
"2008-08-19 17:00:00",24.6100006104,0.0,6.65999984741,11.8999996185,2.59999990463,100.199996948,12.2700004578
"2008-08-19 18:00:00",24.0300006866,0.0,6.78999996185,4.5,3.09999990463,91.0999984741,11.7899999619
"2008-08-20 10:00:00",21.9799995422,0.0,7.05000019073,-10.5,4.09999990463,101.199996948,11.6099996567
"2008-08-20 11:00:00",24.7299995422,0.0,6.65999984741,12.3000001907,2.29999995232,106.400001526,14.1300001144
"2008-08-20 12:00:00",26.6599998474,0.0,6.53000020981,19.6000003815,2.29999995232,124.400001526,13.75
"2008-08-20 13:00:00",28.5499992371,0.0,6.44000005722,25.5,2.70000004768,134.5,14.1499996185
"2008-08-20 14:00:00",28.7199993134,0.0,6.40000009537,27.6000003815,2.5,127.900001526,13.7299995422
"2008-08-20 15:00:00",26.7299995422,0.0,6.44000005722,25.2999992371,3.79999995232,90.3000030518,13.7899999619
"2008-08-20 16:00:00",25.8700008392,0.0,6.55999994278,17.7999992371,3.40000009537,86.5999984741,12.5699996948
"2008-08-20 17:00:00",25.7700004578,0.0,6.57000017166,17.2999992371,2.20000004768,100.0,12.6099996567
"2008-08-20 18:00:00",25.4099998474,0.0,6.69000005722,10.6999998093,3.59999990463,91.0,12.279999733
"2008-08-20 19:00:00",23.6200008392,0.0010000000475,6.94999980927,-4.5,8.39999961853,96.0999984741,11.279999733
"2008-08-21 11:00:00",22.8099994659,0.0010000000475,6.94000005722,-4.40000009537,8.80000019073,96.5,11.9200000763
"2008-08-21 12:00:00",23.6599998474,0.0010000000475,6.76999998093,5.40000009537,6.40000009537,104.300003052,12.9899997711
"2008-08-21 13:00:00",24.5599994659,0.0,6.53999996185,19.0,6.0,106.099998474,13.9499998093
"2008-08-21 14:00:00",25.0400009155,0.0,5.98000001907,51.5999984741,5.0,109.900001526,13.9200000763
"2008-08-21 15:00:00",25.2800006866,0.0,5.80999994278,62.0999984741,4.80000019073,100.900001526,13.8500003815
"2008-08-21 16:00:00",25.1000003815,0.0,5.90999984741,56.0,7.19999980927,97.5,13.8199996948
"2008-08-21 17:00:00",24.7099990845,0.0,5.88000011444,57.7999992371,6.30000019073,97.8000030518,12.4600000381
"2008-08-21 18:00:00",24.4500007629,0.0,5.98000001907,51.9000015259,6.40000009537,95.5,12.1000003815
"2008-08-21 19:00:00",23.8799991608,0.0,6.03000020981,48.5999984741,11.3000001907,88.5999984741,11.5100002289
"2008-08-22 10:00:00",20.8299999237,0.0,6.34000015259,30.0,3.5,100.099998474,11.779999733
"2008-08-22 11:00:00",22.4699993134,0.0,6.13999986649,42.2999992371,3.5,109.099998474,13.1700000763
"2008-08-22 12:00:00",23.6100006104,0.0,6.03000020981,48.5,3.70000004768,123.800003052,14.3100004196
"2008-08-22 13:00:00",24.6599998474,0.0,5.94000005722,54.2999992371,3.90000009537,117.5,13.1199998856
"2008-08-22 14:00:00",24.9300003052,0.0,5.88999986649,56.7999992371,3.09999990463,129.100006104,13.9799995422
"2008-08-22 15:00:00",24.7099990845,0.0,5.80999994278,61.5999984741,3.09999990463,115.300003052,13.8400001526
"2008-08-22 16:00:00",24.4099998474,0.0,5.84999990463,59.0,5.09999990463,114.099998474,12.7399997711
"2008-08-22 17:00:00",24.0100002289,0.0,5.86999988556,57.7999992371,3.20000004768,110.300003052,12.3999996185
"2008-08-22 18:00:00",23.6100006104,0.0,6.0,50.5999984741,2.90000009537,102.599998474,11.9200000763
"2008-08-22 19:00:00",23.2299995422,0.0,6.11000013351,44.2000007629,3.90000009537,92.5999984741,11.4499998093
"2008-08-23 11:00:00",24.7000007629,0.0,6.23000001907,37.0999984741,2.90000009537,121.099998474,12.8299999237
"2008-08-23 12:00:00",25.7900009155,0.0,6.03999996185,48.2999992371,3.20000004768,143.899993896,14.0200004578
"2008-08-23 13:00:00",26.4899997711,0.0,5.94000005722,54.2000007629,2.5,181.699996948,12.8999996185
"2008-08-23 14:00:00",28.5,0.0,5.82999992371,61.5999984741,3.59999990463,137.100006104,14.0200004578
"2008-08-23 15:00:00",25.9699993134,0.0,5.80999994278,61.7999992371,3.0,129.899993896,12.9099998474
"2008-08-23 16:00:00",25.7000007629,0.0,5.92999982834,55.0999984741,3.5,114.199996948,12.8599996567
"2008-08-23 17:00:00",25.1399993896,0.0,5.86999988556,58.0999984741,2.79999995232,103.0,12.5500001907
"2008-08-23 18:00:00",24.6200008392,0.0,6.11999988556,43.7999992371,4.09999990463,93.9000015259,12.1099996567
"2008-08-23 19:00:00",23.9500007629,0.0,6.21000003815,38.0999984741,2.20000004768,98.3000030518,11.5100002289
"2008-08-24 11:00:00",24.7199993134,0.0,6.36000013351,29.7999992371,5.40000009537,108.0,13.8299999237
"2008-08-24 12:00:00",26.5300006866,0.0,6.05000019073,48.2000007629,4.30000019073,125.800003052,13.0
"2008-08-24 13:00:00",27.3199996948,0.0,5.96000003815,53.4000015259,3.40000009537,153.800003052,13.7700004578